User: anonymous   Login
Location: Unspecified
(0.0000°N, 0.0000°E)
Time: 03:51:50
(UTC+02:00)
Language:

YAOGAN 1 - Orbit

View from above orbital plane
View from above orbital plane
View from above satellite
View from above satellite

Ground track
Ground track

The orbit data is extracted from the following two-line orbital elements,

1 29092U 06015A   17172.65091130 +.00000070 +00000-0 +15340-4 0  9991
2 29092 098.0021 184.0237 0001505 090.2750 269.8636 14.82809189602922
Epoch (UTC): 21 June 2017 15:37:18
Eccentricity: 0.0001505
inclination: 98.0021°
perigee height: 619 km
apogee height: 621 km
right ascension of ascending node: 184.0237°
argument of perigee: 90.2750°
revolutions per day: 14.82809189
mean anomaly at epoch: 269.8636°
orbit number at epoch: 60292

The dashed part of the orbit path shows where the satellite is in the earth's shadow,  

DLR